Regional Weather Roundup
Issued by NWS Northern Indiana

Home | Current Version | Previous Version | Graphics & Text | Print | Product List | Glossary On
Versions: 1 2 3 4 5 6 7 8 9 10 11 12 13 14 15 16 17 18 19 20 21 22 23 24 25 26 27 28 29 30 31 32 33 34 35 36 37 38 39 40 41 42 43 44 45 46 47 48 49 50
000
ASUS43 KIWX 230210
RWRIWX

KIWX WEATHER ROUNDUP
NATIONAL WEATHER SERVICE NORTHERN INDIANA
1000 PM EDT FRI JUL 22 2016

NOTE: "FAIR" INDICATES FEW OR NO CLOUDS BELOW 12,000 FEET WITH NO
SIGNIFICANT WEATHER AND/OR OBSTRUCTIONS TO VISIBILITY.

* THESE STATIONS ARE NOT UNDER NWS QUALITY CONTROL. THEY ALSO MAY NOT
  REPORT WEATHER SUCH AS PRECIPITATION OR FOG.

INZ001>027-230300-
NORTHERN INDIANA

CITY           SKY/WX    TMP DP  RH WIND       PRES   REMARKS
GARY*          MOCLDY    81  79  94 CALM      29.98S
VALPARAISO     CLEAR     78  74  87 W3        29.99S
MICHIGAN CITY* CLEAR     75  72  88 CALM      29.99S
LAPORTE*       CLEAR     80  79  98 W5        30.00S
KNOX*          CLEAR     77  70  78 W5        29.99R
SOUTH BEND     CLEAR     76  71  85 NW5       30.00R
GOSHEN         CLEAR     78  70  76 W3        29.99S
MONTICELLO*    CLOUDY    79  71  77 CALM      30.00R
LOGANSPORT*    CLEAR     75  72  88 W3        30.01S
ROCHESTER*     PTCLDY    81  75  83 SW3       30.01R
WARSAW*        MOCLDY    79  72  78 CALM      30.00R
ANGOLA*          N/A     79  73  83 CALM      29.99S
FORT WAYNE     PTCLDY    76  71  85 W7        30.00R
HUNTINGTON*    CLEAR    N/A N/A N/A CALM      30.00R
PERU/GRISSOM   CLEAR     78  73  83 W6        30.00R
MARION*        MOCLDY    76  73  91 W3        30.01S

$$
INZ028>050-230300-
CENTRAL INDIANA

CITY           SKY/WX    TMP DP  RH WIND       PRES   REMARKS
LAFAYETTE      CLEAR     77  74  90 CALM      30.00R FOG
KOKOMO*        CLEAR     79  70  73 W5        30.01R
MUNCIE*        CLEAR     81  70  69 W5        30.02R
INDIANAPOLIS   PTCLDY    80  69  69 NW6       30.02R

$$
MIZ043>046-050>051-056>058-064>065-071>073-077>080-230300-
SOUTHWEST LOWER MICHIGAN

CITY           SKY/WX    TMP DP  RH WIND       PRES   REMARKS
BATTLE CREEK   CLEAR     75  71  87 NW6       30.00R
BENTON HARBOR  CLEAR     75  69  81 CALM      29.98S
COLDWATER*     CLEAR     77  70  78 W3        29.99R
HOLLAND        CLEAR     71  67  87 CALM      29.99S
GRAND RAPIDS   CLEAR     77  68  73 W7        29.98S
KALAMAZOO      CLEAR     78  69  73 NW5       29.99R
STURGIS*       CLEAR     77  70  78 CALM      29.99R
THREE RIVERS*  FAIR      77  69  74 CALM      30.00R

$$
OHZ001>008-015>018-024>025-230300-
NORTHWEST OHIO

CITY           SKY/WX    TMP DP  RH WIND       PRES   REMARKS
WAUSEON*       MOCLDY    79  73  83 CALM      29.97R
DEFIANCE       CLEAR     82  73  74 CALM      29.97R
FINDLAY        PTCLDY    81  71  71 SW3       29.97R
TOLEDO EXPRESS CLEAR     78  74  87 CALM      29.96R
TOLEDO METCALF CLEAR     85  72  65 W3        29.96R
LIMA           CLEAR     81  72  74 SW6       30.00R

$$
AND FOR LAKE MICHIGAN COASTAL AND OPEN LAKE BUOY OBSERVATIONS

STATION/POSITION TEMP    WIND        PRES    VSBY  WAVE
                 AIR SEA DIR/SP/G                  HT/PER
                 (F)     (DEG/KT/KT) (MB)    (MI)  (FT/S)
CALUMET HARBOR    81                   N/A
MICHIGAN CITY     83      CALM  /  1   N/A
BURNS HARBOR      83     190/  1/  7 1015.6S
SAINT JOSEPH      77      CALM  /  1 1016.3R
SOUTH LAKE BUOY   74 74  160/  4/  6 1014.2R         0
4 MI NW BRIDGMAN  76 74   CALM  /  2 1014.9R         0
MICHIGAN CITY     80 77   90/  2/  4   N/A           1

$$
&&




USA.gov is the U.S. government's official web portal to all federal, state and local government web resources and services.